Regional Weather Roundup
Issued by NWS Little Rock, AR

Home | Current Version | Previous Version | Text Only | Print | Product List | Glossary On
Versions: 1 2 3 4 5 6 7 8 9 10 11 12 13 14 15 16 17 18 19 20 21 22 23 24 25 26 27 28 29 30 31 32 33 34 35 36 37 38 39 40 41 42 43 44 45
000
ASUS44 KLZK 282005
RWRLZK

WEATHER ROUNDUP FOR ARKANSAS
NATIONAL WEATHER SERVICE LITTLE ROCK AR
200 PM CST SUN DEC 28 2014

NOTE: "FAIR" INDICATES FEW OR NO CLOUDS BELOW 12,000 FEET WITH NO
SIGNIFICANT WEATHER AND/OR OBSTRUCTIONS TO VISIBILITY.

ARZ001-003-010-029-282100-
NORTHWEST ARKANSAS

CITY           SKY/WX    TMP DP  RH WIND       PRES   REMARKS
FAYETTEVILLE   SUNNY     37  26  64 CALM      30.16F
FORT SMITH     MOSUNNY   41  27  57 VRB3      30.18F
HARRISON       PTSUNNY   35  26  69 CALM      30.16S
BENTONVILLE    SUNNY     37  25  60 CALM      30.16F
ROGERS         SUNNY     36  27  69 N5        30.15F
SILOAM SPGS    SUNNY     37  25  60 NE3       30.17F
HIGHFILL       SUNNY     38  26  62 NE5       30.14F
SPRINGDALE     MOSUNNY   37  27  65 NE6       30.17F
$$

ARZ004-005-016-282100-
NORTH CENTRAL ARKANSAS

CITY           SKY/WX    TMP DP  RH WIND       PRES   REMARKS
BATESVILLE     CLOUDY    37  28  70 N3        30.19R
FLIPPIN        CLOUDY    36  25  64 CALM      30.17F
MTN HOME       CLOUDY    35  25  66 VRB6      30.16F WCI  30
$$

ARZ040-041-282100-
WEST CENTRAL ARKANSAS

CITY           SKY/WX    TMP DP  RH WIND       PRES   REMARKS
MENA           CLOUDY    41  32  70 CALM      30.15
MOUNT IDA      CLOUDY    41  31  67 CALM      30.14F
$$

ARZ009-017-025-026-028-282100-
NORTHEAST ARKANSAS

CITY           SKY/WX    TMP DP  RH WIND       PRES   REMARKS
CORNING          N/A     36  30  80 N6        30.21R
JONESBORO      CLOUDY    38  33  82 NE7       30.19S
NEWPORT        CLOUDY    37  32  82 N9        30.22R
WALNUT RIDGE   CLOUDY    37  28  70 N6        30.19S
BLYTHEVILLE    CLOUDY    38  34  85 N13       30.19S
$$

ARZ022-023-033-042-044-282100-
CENTRAL ARKANSAS

CITY           SKY/WX    TMP DP  RH WIND       PRES   REMARKS
LITTLE ROCK    CLOUDY    40  30  67 N3        30.19F
N LITTLE ROCK  CLOUDY    37  33  84 N5        30.19F
JACKSONVILLE   CLOUDY    39  31  73 NW5       30.19R
SEARCY         CLOUDY    38  32  79 N6        30.21R
HOT SPRINGS    CLOUDY    41  32  70 CALM      30.16F
RUSSELLVILLE   CLOUDY    39  27  62 CALM      30.18S
CLINTON        FAIR      37  28  70 NW3       30.20
$$

ARZ036-282100-
EAST ARKANSAS

CITY           SKY/WX    TMP DP  RH WIND       PRES   REMARKS
WEST MEMPHIS   CLOUDY    40  37  89 N10       30.17S
$$

ARZ050-053-066-070-073-282100-
SOUTHWEST ARKANSAS

CITY           SKY/WX    TMP DP  RH WIND       PRES   REMARKS
ARKADELPHIA    MOCLDY    42  39  89 E6        30.18F
CAMDEN         CLOUDY    43  37  81 CALM      30.18F
TEXARKANA      LGT RAIN  42  37  82 NE5       30.15F
EL DORADO      CLOUDY    42  39  89 N6        30.15F
DE QUEEN       CLOUDY    43  35  73 CALM      30.16F
$$

ARZ056-057-069-282100-
SOUTHEAST ARKANSAS

CITY           SKY/WX    TMP DP  RH WIND       PRES   REMARKS
PINE BLUFF     CLOUDY    40  34  79 N9        30.18F
STUTTGART      CLOUDY    39  34  81 N6        30.19S
MONTICELLO     LGT RAIN  41  38  89 N6        30.17F

$$




USA.gov is the U.S. government's official web portal to all federal, state and local government web resources and services.